Time,TemperatureF,DewpointF,PressureIn,WindDirection,WindDirectionDegrees,WindSpeedMPH,WindSpeedGustMPH,Humidity,HourlyPrecipIn,Conditions,Clouds,dailyrainin,SoftwareType,DateUTC
2014-01-21 00:04:00,0.0,-0.2,26.34,North,357,0.0,0.0,12,0.00,,,-99.99,VWS V12.07,2014-01-21 08:04:00,
2014-01-21 00:09:00,50.0,-0.5,26.34,North,1,0.0,0.0,12,0.00,,,-99.99,VWS V12.07,2014-01-21 08:09:00,
2014-01-21 00:15:00,49.8,-0.7,26.34,North,1,0.0,0.0,12,0.00,,,-99.99,VWS V12.07,2014-01-21 08:15:00,
2014-01-21 00:21:00,49.8,-0.6,26.34,NE,56,0.0,0.0,12,0.00,,,-99.99,VWS V12.07,2014-01-21 08:21:00,
2014-01-21 00:27:00,49.8,-0.7,26.34,NNE,16,0.0,5.4,12,0.00,,,-99.99,VWS V12.07,2014-01-21 08:27:00,
2014-01-21 00:33:00,49.3,-1.2,26.34,North,11,0.0,5.4,12,0.00,,,-99.99,VWS V12.07,2014-01-21 08:33:00,
2014-01-21 00:39:00,49.1,-1.3,26.34,North,8,0.0,0.0,12,0.00,,,-99.99,VWS V12.07,2014-01-21 08:39:00,
2014-01-21 00:45:00,49.1,-1.3,26.31,SW,231,0.0,0.0,12,0.00,,,-99.99,VWS V12.07,2014-01-21 08:45:00,
2014-01-21 00:51:00,49.5,-1.0,26.31,SSW,212,0.0,0.0,12,0.00,,,-99.99,VWS V12.07,2014-01-21 08:51:00,
2014-01-21 00:57:00,49.8,-0.7,26.31,South,184,0.0,0.0,12,0.00,,,-99.99,VWS V12.07,2014-01-21 08:57:00,
2014-01-21 01:03:00,49.5,-0.9,26.34,South,184,0.0,0.0,12,0.00,,,-99.99,VWS V12.07,2014-01-21 09:03:00,
2014-01-21 01:09:00,49.1,-1.5,26.34,South,184,0.0,0.0,12,0.00,,,-99.99,VWS V12.07,2014-01-21 09:09:00,
2014-01-21 01:15:00,48.7,-1.6,26.34,SSW,196,0.0,0.0,12,0.00,,,-99.99,VWS V12.07,2014-01-21 09:15:00,
2014-01-21 01:21:00,48.7,-1.6,26.34,SW,224,0.0,3.1,12,0.00,,,-99.99,VWS V12.07,2014-01-21 09:21:00,
2014-01-21 01:27:00,48.9,-1.3,26.34,SSW,205,0.0,3.1,12,0.00,,,-99.99,VWS V12.07,2014-01-21 09:27:00,
2014-01-21 01:33:00,49.3,-1.2,26.31,SSW,206,0.0,3.1,12,0.00,,,-99.99,VWS V12.07,2014-01-21 09:33:00,
2014-01-21 01:39:00,48.7,-1.6,26.31,East,83,0.0,4.0,12,0.00,,,-99.99,VWS V12.07,2014-01-21 09:39:00,
2014-01-21 01:45:00,48.2,-2.0,26.31,ENE,66,0.0,4.0,12,0.00,,,-99.99,VWS V12.07,2014-01-21 09:45:00,
2014-01-21 01:51:00,48.7,-1.6,26.31,NNE,23,0.0,4.0,12,0.00,,,-99.99,VWS V12.07,2014-01-21 09:51:00,
2014-01-21 01:57:00,48.9,-1.5,26.31,NE,34,0.0,4.0,12,0.00,,,-99.99,VWS V12.07,2014-01-21 09:57:00,
2014-01-21 02:03:00,48.7,-1.2,26.34,NNW,338,0.0,5.8,12,0.00,,,-99.99,VWS V12.07,2014-01-21 10:03:00,
2014-01-21 02:09:00,49.6,-0.7,26.34,NE,43,4.8,7.6,12,0.00,,,-99.99,VWS V12.07,2014-01-21 10:09:00,
2014-01-21 02:15:00,50.2,-0.5,26.31,NNE,12,0.0,7.6,12,0.00,,,-99.99,VWS V12.07,2014-01-21 10:15:00,
2014-01-21 02:21:00,50.2,-0.5,26.31,North,354,0.0,4.0,12,0.00,,,-99.99,VWS V12.07,2014-01-21 10:21:00,
2014-01-21 02:27:00,50.5,0.1,26.31,North,3,4.3,8.3,12,0.00,,,-99.99,VWS V12.07,2014-01-21 10:27:00,
2014-01-21 02:33:00,50.7,0.0,26.31,North,349,0.0,8.3,12,0.00,,,-99.99,VWS V12.07,2014-01-21 10:33:00,
2014-01-21 02:39:00,50.2,-0.3,26.31,NNE,14,0.0,0.0,12,0.00,,,-99.99,VWS V12.07,2014-01-21 10:39:00,
2014-01-21 02:45:00,50.0,-0.6,26.31,WNW,300,0.0,0.0,12,0.00,,,-99.99,VWS V12.07,2014-01-21 10:45:00,
2014-01-21 02:51:00,50.0,-0.6,26.31,NNE,27,4.3,5.4,12,0.00,,,-99.99,VWS V12.07,2014-01-21 10:51:00,
2014-01-21 02:57:00,50.0,-0.6,26.31,NNW,335,0.0,6.7,12,0.00,,,-99.99,VWS V12.07,2014-01-21 10:57:00,
2014-01-21 03:03:00,50.0,-0.6,26.31,NNE,33,0.0,3.6,12,0.00,,,-99.99,VWS V12.07,2014-01-21 11:03:00,
2014-01-21 03:09:00,50.5,-0.2,26.31,North,2,0.0,3.6,12,0.00,,,-99.99,VWS V12.07,2014-01-21 11:09:00,
2014-01-21 03:15:00,50.7,0.0,26.31,NNE,31,0.0,3.6,12,0.00,,,-99.99,VWS V12.07,2014-01-21 11:15:00,
2014-01-21 03:21:00,50.5,-0.3,26.31,NNE,12,6.4,6.4,12,0.00,,,-99.99,VWS V12.07,2014-01-21 11:21:00,
2014-01-21 03:27:00,50.4,-0.3,26.31,NNW,335,0.0,5.4,12,0.00,,,-99.99,VWS V12.07,2014-01-21 11:27:00,
2014-01-21 03:33:00,50.0,-0.5,26.31,North,4,0.0,5.4,12,0.00,,,-99.99,VWS V12.07,2014-01-21 11:33:00,
2014-01-21 03:39:00,50.0,-0.5,26.31,North,7,6.4,6.4,12,0.00,,,-99.99,VWS V12.07,2014-01-21 11:39:00,
2014-01-21 03:45:00,50.0,-0.6,26.31,NNW,339,7.0,7.0,12,0.00,,,-99.99,VWS V12.07,2014-01-21 11:45:00,
2014-01-21 03:51:00,49.8,-0.7,26.31,NW,322,0.0,6.7,12,0.00,,,-99.99,VWS V12.07,2014-01-21 11:51:00,
2014-01-21 03:57:00,50.0,-0.6,26.31,NNE,24,6.4,6.7,12,0.00,,,-99.99,VWS V12.07,2014-01-21 11:57:00,
2014-01-21 04:03:00,50.2,-0.5,26.31,NNW,340,3.2,5.4,12,0.00,,,-99.99,VWS V12.07,2014-01-21 12:03:00,
2014-01-21 04:09:00,50.9,-0.2,26.31,North,7,4.3,8.1,12,0.00,,,-99.99,VWS V12.07,2014-01-21 12:09:00,
2014-01-21 04:15:00,50.9,0.1,26.31,NNE,18,3.2,8.1,12,0.00,,,-99.99,VWS V12.07,2014-01-21 12:15:00,
2014-01-21 04:21:00,51.3,0.2,26.31,NW,323,7.0,7.0,12,0.00,,,-99.99,VWS V12.07,2014-01-21 12:21:00,
2014-01-21 04:27:00,51.4,0.7,26.31,NNE,30,0.0,6.7,12,0.00,,,-99.99,VWS V12.07,2014-01-21 12:27:00,
2014-01-21 04:33:00,51.6,0.7,26.28,NNE,30,0.0,6.7,12,0.00,,,-99.99,VWS V12.07,2014-01-21 12:33:00,
2014-01-21 04:39:00,52.0,1.0,26.28,NNE,30,0.0,6.7,12,0.00,,,-99.99,VWS V12.07,2014-01-21 12:39:00,
2014-01-21 04:45:00,51.8,0.7,26.31,SSE,159,0.0,0.0,12,0.00,,,-99.99,VWS V12.07,2014-01-21 12:45:00,
2014-01-21 04:51:00,51.4,0.5,26.31,SSE,159,0.0,0.0,12,0.00,,,-99.99,VWS V12.07,2014-01-21 12:51:00,
2014-01-21 04:57:00,51.1,0.2,26.31,SSE,159,0.0,0.0,12,0.00,,,-99.99,VWS V12.07,2014-01-21 12:57:00,
2014-01-21 05:03:00,51.3,0.4,26.31,SSE,159,0.0,0.0,12,0.00,,,-99.99,VWS V12.07,2014-01-21 13:03:00,
2014-01-21 05:09:00,52.2,1.2,26.31,North,6,3.2,5.8,12,0.00,,,-99.99,VWS V12.07,2014-01-21 13:09:00,
2014-01-21 05:15:00,53.1,2.1,26.31,NE,52,2.7,8.7,12,0.00,,,-99.99,VWS V12.07,2014-01-21 13:15:00,
2014-01-21 05:21:00,53.4,2.2,26.31,North,10,4.8,7.6,12,0.00,,,-99.99,VWS V12.07,2014-01-21 13:21:00,
2014-01-21 05:27:00,54.5,2.7,26.31,NNE,15,11.0,11.0,12,0.00,,,-99.99,VWS V12.07,2014-01-21 13:27:00,
2014-01-21 05:33:00,54.5,2.9,26.31,NNE,17,7.0,11.0,12,0.00,,,-99.99,VWS V12.07,2014-01-21 13:33:00,
2014-01-21 05:39:00,55.8,4.2,26.31,NE,38,9.7,11.0,12,0.00,,,-99.99,VWS V12.07,2014-01-21 13:39:00,
2014-01-21 05:45:00,55.9,3.9,26.31,NNE,16,7.5,8.7,12,0.00,,,-99.99,VWS V12.07,2014-01-21 13:45:00,
2014-01-21 05:51:00,55.6,3.5,26.31,NNE,12,7.0,8.7,12,0.00,,,-99.99,VWS V12.07,2014-01-21 13:51:00,
2014-01-21 05:57:00,54.5,2.9,26.31,North,353,3.2,8.7,12,0.00,,,-99.99,VWS V12.07,2014-01-21 13:57:00,
2014-01-21 06:03:00,54.1,2.8,26.31,NNE,31,3.8,3.8,12,0.00,,,-99.99,VWS V12.07,2014-01-21 14:03:00,
2014-01-21 06:09:00,54.0,2.4,26.31,North,358,4.8,4.8,12,0.00,,,-99.99,VWS V12.07,2014-01-21 14:09:00,
2014-01-21 06:15:00,54.7,3.5,26.31,NNE,17,0.0,6.7,12,0.00,,,-99.99,VWS V12.07,2014-01-21 14:15:00,
2014-01-21 06:21:00,55.6,3.7,26.31,North,9,4.8,8.7,12,0.00,,,-99.99,VWS V12.07,2014-01-21 14:21:00,
2014-01-21 06:27:00,55.6,4.1,26.31,NW,323,9.1,10.1,12,0.00,,,-99.99,VWS V12.07,2014-01-21 14:27:00,
2014-01-21 06:33:00,56.8,4.8,26.31,North,352,7.0,12.3,12,0.00,,,-99.99,VWS V12.07,2014-01-21 14:33:00,
2014-01-21 06:39:00,56.8,4.9,26.31,North,11,4.8,12.8,12,0.00,,,-99.99,VWS V12.07,2014-01-21 14:39:00,
2014-01-21 06:45:00,57.4,5.2,26.31,NNW,345,4.3,10.1,12,0.00,,,-99.99,VWS V12.07,2014-01-21 14:45:00,
2014-01-21 06:51:00,57.6,5.3,26.31,NNW,327,3.2,11.0,12,0.00,,,-99.99,VWS V12.07,2014-01-21 14:51:00,
2014-01-21 06:57:00,57.4,5.2,26.31,North,356,9.7,11.0,12,0.00,,,-99.99,VWS V12.07,2014-01-21 14:57:00,
2014-01-21 07:03:00,57.6,5.3,26.31,North,5,9.9,11.0,12,0.00,,,-99.99,VWS V12.07,2014-01-21 15:03:00,
2014-01-21 07:09:00,57.7,5.5,26.31,NNW,334,6.4,11.0,12,0.00,,,-99.99,VWS V12.07,2014-01-21 15:09:00,
2014-01-21 07:15:00,58.1,5.8,26.31,North,3,9.7,11.0,12,0.00,,,-99.99,VWS V12.07,2014-01-21 15:15:00,
2014-01-21 07:21:00,58.1,5.9,26.31,NE,42,9.1,11.0,12,0.00,,,-99.99,VWS V12.07,2014-01-21 15:21:00,
2014-01-21 07:27:00,58.3,5.9,26.31,NNW,339,12.6,12.6,12,0.00,,,-99.99,VWS V12.07,2014-01-21 15:27:00,
2014-01-21 07:33:00,58.5,6.1,26.31,NE,45,9.1,12.3,12,0.00,,,-99.99,VWS V12.07,2014-01-21 15:33:00,
2014-01-21 07:39:00,58.5,6.1,26.31,NNE,18,4.8,4.8,12,0.00,,,-99.99,VWS V12.07,2014-01-21 15:39:00,
2014-01-21 07:45:00,58.8,6.2,26.31,North,8,9.7,11.4,12,0.00,,,-99.99,VWS V12.07,2014-01-21 15:45:00,
2014-01-21 07:51:00,58.8,6.2,26.31,North,11,9.1,11.4,12,0.00,,,-99.99,VWS V12.07,2014-01-21 15:51:00,
2014-01-21 07:57:00,59.0,6.5,26.31,North,355,9.7,11.4,12,0.00,,,-99.99,VWS V12.07,2014-01-21 15:57:00,
2014-01-21 08:03:00,59.0,6.5,26.31,NNE,20,4.3,10.5,12,0.00,,,-99.99,VWS V12.07,2014-01-21 16:03:00,
2014-01-21 08:09:00,59.4,6.8,26.31,NNW,334,7.5,10.5,12,0.00,,,-99.99,VWS V12.07,2014-01-21 16:09:00,
2014-01-21 08:15:00,59.5,6.9,26.31,North,358,9.9,12.3,12,0.00,,,-99.99,VWS V12.07,2014-01-21 16:15:00,
2014-01-21 08:21:00,60.1,7.2,26.31,North,9,6.4,11.0,12,0.00,,,-99.99,VWS V12.07,2014-01-21 16:21:00,
2014-01-21 08:27:00,60.6,7.6,26.31,NNE,17,9.9,11.4,12,0.00,,,-99.99,VWS V12.07,2014-01-21 16:27:00,
2014-01-21 08:33:00,61.0,7.9,26.31,NW,324,9.7,11.4,12,0.00,,,-99.99,VWS V12.07,2014-01-21 16:33:00,
2014-01-21 08:39:00,61.3,8.2,26.31,NNE,22,9.1,11.0,12,0.00,,,-99.99,VWS V12.07,2014-01-21 16:39:00,
2014-01-21 08:45:00,61.5,8.5,26.34,North,7,5.4,11.0,12,0.00,,,-99.99,VWS V12.07,2014-01-21 16:45:00,
2014-01-21 08:51:00,62.1,9.0,26.34,NNW,348,7.5,11.0,12,0.00,,,-99.99,VWS V12.07,2014-01-21 16:51:00,
2014-01-21 08:57:00,62.6,9.2,26.34,North,356,9.9,11.0,12,0.00,,,-99.99,VWS V12.07,2014-01-21 16:57:00,
2014-01-21 09:03:00,63.3,9.7,26.34,NNE,30,9.7,10.1,12,0.00,,,-99.99,VWS V12.07,2014-01-21 17:03:00,
2014-01-21 09:09:00,64.4,10.4,26.34,NNW,347,7.5,10.1,12,0.00,,,-99.99,VWS V12.07,2014-01-21 17:09:00,
2014-01-21 09:15:00,65.1,11.1,26.34,North,10,0.0,10.1,12,0.00,,,-99.99,VWS V12.07,2014-01-21 17:15:00,
2014-01-21 09:21:00,66.0,12.0,26.34,NNW,336,9.7,9.7,12,0.00,,,-99.99,VWS V12.07,2014-01-21 17:21:00,
2014-01-21 09:27:00,65.8,12.0,26.34,North,11,7.5,10.5,12,0.00,,,-99.99,VWS V12.07,2014-01-21 17:27:00,
2014-01-21 09:33:00,65.1,11.3,26.34,NNW,348,11.5,11.5,12,0.00,,,-99.99,VWS V12.07,2014-01-21 17:33:00,
2014-01-21 09:39:00,65.5,11.6,26.34,North,5,9.1,9.1,12,0.00,,,-99.99,VWS V12.07,2014-01-21 17:39:00,
2014-01-21 09:45:00,65.5,11.6,26.34,NNE,20,12.1,13.2,12,0.00,,,-99.99,VWS V12.07,2014-01-21 17:45:00,
2014-01-21 09:51:00,65.7,11.6,26.34,North,4,12.6,13.2,12,0.00,,,-99.99,VWS V12.07,2014-01-21 17:51:00,
2014-01-21 09:57:00,66.9,12.8,26.34,NE,46,10.5,13.2,12,0.00,,,-99.99,VWS V12.07,2014-01-21 17:57:00,
2014-01-21 10:03:00,67.1,12.8,26.34,NNE,24,9.7,16.3,12,0.00,,,-99.99,VWS V12.07,2014-01-21 18:03:00,
2014-01-21 10:09:00,66.6,12.3,26.34,NNE,20,7.5,16.3,12,0.00,,,-99.99,VWS V12.07,2014-01-21 18:09:00,
2014-01-21 10:15:00,65.5,11.6,26.34,North,359,6.4,16.3,12,0.00,,,-99.99,VWS V12.07,2014-01-21 18:15:00,
2014-01-21 10:21:00,66.7,12.4,26.34,North,10,10.5,12.8,12,0.00,,,-99.99,VWS V12.07,2014-01-21 18:21:00,
2014-01-21 10:27:00,67.8,13.2,26.34,North,6,12.6,12.8,12,0.00,,,-99.99,VWS V12.07,2014-01-21 18:27:00,
2014-01-21 10:33:00,68.0,13.5,26.34,NNE,24,11.5,17.0,12,0.00,,,-99.99,VWS V12.07,2014-01-21 18:33:00,
2014-01-21 10:39:00,68.0,13.8,26.34,North,359,9.9,9.9,12,0.00,,,-99.99,VWS V12.07,2014-01-21 18:39:00,
2014-01-21 10:45:00,68.4,13.7,26.31,North,9,9.9,12.8,12,0.00,,,-99.99,VWS V12.07,2014-01-21 18:45:00,
2014-01-21 10:51:00,67.6,13.0,26.31,North,7,15.8,15.8,12,0.00,,,-99.99,VWS V12.07,2014-01-21 18:51:00,
2014-01-21 10:57:00,69.3,14.5,26.31,NNE,15,10.5,15.0,12,0.00,,,-99.99,VWS V12.07,2014-01-21 18:57:00,
2014-01-21 11:03:00,70.3,15.4,26.31,NW,316,14.8,14.8,12,0.00,,,-99.99,VWS V12.07,2014-01-21 19:03:00,
2014-01-21 11:09:00,70.0,15.1,26.31,NNE,14,7.5,15.0,12,0.00,,,-99.99,VWS V12.07,2014-01-21 19:09:00,
2014-01-21 11:15:00,70.0,14.9,26.31,NNE,17,7.5,15.0,12,0.00,,,-99.99,VWS V12.07,2014-01-21 19:15:00,
2014-01-21 11:21:00,70.9,15.6,26.31,North,3,15.3,15.3,12,0.00,,,-99.99,VWS V12.07,2014-01-21 19:21:00,
2014-01-21 11:27:00,70.5,15.6,26.31,NNE,12,9.1,13.2,12,0.00,,,-99.99,VWS V12.07,2014-01-21 19:27:00,
2014-01-21 11:33:00,69.8,14.8,26.31,NNW,346,9.7,13.2,12,0.00,,,-99.99,VWS V12.07,2014-01-21 19:33:00,
2014-01-21 11:39:00,69.4,14.8,26.31,NNW,328,10.5,15.9,12,0.00,,,-99.99,VWS V12.07,2014-01-21 19:39:00,
2014-01-21 11:45:00,69.3,14.5,26.28,North,7,15.8,15.8,12,0.00,,,-99.99,VWS V12.07,2014-01-21 19:45:00,
2014-01-21 11:51:00,69.3,14.6,26.28,North,3,15.8,15.8,12,0.00,,,-99.99,VWS V12.07,2014-01-21 19:51:00,
2014-01-21 11:57:00,70.3,15.2,26.28,NNW,344,7.5,14.1,12,0.00,,,-99.99,VWS V12.07,2014-01-21 19:57:00,
2014-01-21 12:03:00,69.8,14.9,26.28,NNE,17,9.1,12.8,12,0.00,,,-99.99,VWS V12.07,2014-01-21 20:03:00,
2014-01-21 12:09:00,69.1,14.4,26.28,NE,40,9.9,15.4,12,0.00,,,-99.99,VWS V12.07,2014-01-21 20:09:00,
2014-01-21 12:15:00,70.9,15.9,26.28,North,358,15.8,15.8,12,0.00,,,-99.99,VWS V12.07,2014-01-21 20:15:00,
2014-01-21 12:21:00,70.7,15.5,26.28,NNE,15,12.1,12.1,12,0.00,,,-99.99,VWS V12.07,2014-01-21 20:21:00,
2014-01-21 12:27:00,71.2,16.3,26.28,North,355,12.6,12.8,12,0.00,,,-99.99,VWS V12.07,2014-01-21 20:27:00,
2014-01-21 12:33:00,71.2,16.1,26.25,NNE,15,9.7,13.6,12,0.00,,,-99.99,VWS V12.07,2014-01-21 20:33:00,
2014-01-21 12:39:00,69.8,15.1,26.25,NNW,339,9.1,9.1,12,0.00,,,-99.99,VWS V12.07,2014-01-21 20:39:00,
2014-01-21 12:45:00,69.1,14.4,26.25,NNE,28,9.9,12.8,12,0.00,,,-99.99,VWS V12.07,2014-01-21 20:45:00,
2014-01-21 12:51:00,69.3,14.5,26.25,NNW,342,3.8,12.8,12,0.00,,,-99.99,VWS V12.07,2014-01-21 20:51:00,
2014-01-21 12:57:00,68.7,14.4,26.25,North,8,9.1,12.8,12,0.00,,,-99.99,VWS V12.07,2014-01-21 20:57:00,
2014-01-21 13:03:00,67.6,13.5,26.25,North,349,9.7,12.8,12,0.00,,,-99.99,VWS V12.07,2014-01-21 21:03:00,
2014-01-21 13:09:00,68.4,13.8,26.25,NNE,26,11.5,13.2,12,0.00,,,-99.99,VWS V12.07,2014-01-21 21:09:00,
2014-01-21 13:15:00,69.3,14.5,26.25,North,5,7.5,13.2,12,0.00,,,-99.99,VWS V12.07,2014-01-21 21:15:00,
2014-01-21 13:21:00,69.1,14.5,26.25,NNE,27,13.2,13.2,12,0.00,,,-99.99,VWS V12.07,2014-01-21 21:21:00,
2014-01-21 13:27:00,68.2,13.8,26.25,NNW,333,9.9,11.9,12,0.00,,,-99.99,VWS V12.07,2014-01-21 21:27:00,
2014-01-21 13:33:00,67.1,12.8,26.25,NNW,344,12.6,12.8,12,0.00,,,-99.99,VWS V12.07,2014-01-21 21:33:00,
2014-01-21 13:39:00,66.2,12.3,26.25,NNE,28,9.9,9.9,12,0.00,,,-99.99,VWS V12.07,2014-01-21 21:39:00,
2014-01-21 13:45:00,66.2,12.1,26.25,NE,42,7.0,11.9,12,0.00,,,-99.99,VWS V12.07,2014-01-21 21:45:00,
2014-01-21 13:51:00,66.6,12.3,26.25,NE,35,7.5,11.9,12,0.00,,,-99.99,VWS V12.07,2014-01-21 21:51:00,
2014-01-21 13:57:00,66.7,12.7,26.25,NE,41,12.6,13.2,12,0.00,,,-99.99,VWS V12.07,2014-01-21 21:57:00,
2014-01-21 14:03:00,67.8,13.2,26.25,NNW,348,14.2,14.2,12,0.00,,,-99.99,VWS V12.07,2014-01-21 22:03:00,
2014-01-21 14:09:00,67.8,13.5,26.25,NNE,28,12.1,12.3,12,0.00,,,-99.99,VWS V12.07,2014-01-21 22:09:00,
2014-01-21 14:15:00,67.1,12.8,26.25,North,11,4.8,12.3,12,0.00,,,-99.99,VWS V12.07,2014-01-21 22:15:00,
2014-01-21 14:21:00,66.7,12.5,26.25,North,5,4.3,12.3,12,0.00,,,-99.99,VWS V12.07,2014-01-21 22:21:00,
2014-01-21 14:27:00,66.6,12.5,26.25,North,356,9.1,12.3,12,0.00,,,-99.99,VWS V12.07,2014-01-21 22:27:00,
2014-01-21 14:33:00,66.6,12.4,26.25,North,3,7.5,13.6,12,0.00,,,-99.99,VWS V12.07,2014-01-21 22:33:00,
2014-01-21 14:39:00,66.4,12.3,26.25,NNE,28,7.0,13.6,12,0.00,,,-99.99,VWS V12.07,2014-01-21 22:39:00,
2014-01-21 14:45:00,66.2,12.1,26.25,North,358,9.9,11.0,12,0.00,,,-99.99,VWS V12.07,2014-01-21 22:45:00,
2014-01-21 14:51:00,65.8,11.8,26.25,North,356,7.5,13.2,12,0.00,,,-99.99,VWS V12.07,2014-01-21 22:51:00,
2014-01-21 14:57:00,65.7,11.7,26.25,NNE,14,9.1,13.2,12,0.00,,,-99.99,VWS V12.07,2014-01-21 22:57:00,
2014-01-21 15:03:00,65.3,11.6,26.25,NNE,26,7.5,11.4,12,0.00,,,-99.99,VWS V12.07,2014-01-21 23:03:00,
2014-01-21 15:09:00,65.1,11.3,26.25,NNW,344,9.9,11.4,12,0.00,,,-99.99,VWS V12.07,2014-01-21 23:09:00,
2014-01-21 15:15:00,64.9,11.1,26.25,NNW,344,12.6,12.6,12,0.00,,,-99.99,VWS V12.07,2014-01-21 23:15:00,
2014-01-21 15:21:00,64.8,11.0,26.25,NNE,14,13.2,13.2,12,0.00,,,-99.99,VWS V12.07,2014-01-21 23:21:00,
2014-01-21 15:27:00,64.6,10.9,26.25,North,9,9.1,11.0,12,0.00,,,-99.99,VWS V12.07,2014-01-21 23:27:00,
2014-01-21 15:33:00,64.4,10.7,26.25,North,4,5.9,11.0,12,0.00,,,-99.99,VWS V12.07,2014-01-21 23:33:00,
2014-01-21 15:39:00,64.2,10.6,26.25,NNE,16,7.5,7.5,12,0.00,,,-99.99,VWS V12.07,2014-01-21 23:39:00,
2014-01-21 15:45:00,64.2,10.4,26.25,North,359,7.0,10.1,12,0.00,,,-99.99,VWS V12.07,2014-01-21 23:45:00,
2014-01-21 15:51:00,63.9,10.3,26.25,NNE,17,9.1,10.5,12,0.00,,,-99.99,VWS V12.07,2014-01-21 23:51:00,
2014-01-21 15:57:00,63.7,10.1,26.25,NE,43,4.8,10.5,12,0.00,,,-99.99,VWS V12.07,2014-01-21 23:57:00,
2014-01-21 16:03:00,63.5,10.0,26.25,North,7,7.5,8.1,12,0.00,,,-99.99,VWS V12.07,2014-01-22 00:03:00,
2014-01-21 16:09:00,63.5,9.9,26.25,NNE,24,4.8,8.1,12,0.00,,,-99.99,VWS V12.07,2014-01-22 00:09:00,
2014-01-21 16:15:00,63.1,9.7,26.25,North,3,0.0,8.1,12,0.00,,,-99.99,VWS V12.07,2014-01-22 00:15:00,
2014-01-21 16:21:00,62.8,9.4,26.25,NE,35,3.8,3.8,12,0.00,,,-99.99,VWS V12.07,2014-01-22 00:21:00,
2014-01-21 16:27:00,62.4,9.3,26.25,NNW,333,0.0,6.3,12,0.00,,,-99.99,VWS V12.07,2014-01-22 00:27:00,
2014-01-21 16:33:00,61.9,8.9,26.25,NNE,31,3.2,10.1,12,0.00,,,-99.99,VWS V12.07,2014-01-22 00:33:00,
2014-01-21 16:39:00,61.3,8.5,26.25,NNE,17,4.3,10.1,12,0.00,,,-99.99,VWS V12.07,2014-01-22 00:39:00,
2014-01-21 16:45:00,60.8,8.0,26.25,North,360,0.0,5.4,12,0.00,,,-99.99,VWS V12.07,2014-01-22 00:45:00,
2014-01-21 16:51:00,60.4,7.8,26.25,NNW,337,0.0,8.3,12,0.00,,,-99.99,VWS V12.07,2014-01-22 00:51:00,
2014-01-21 16:57:00,60.3,7.2,26.25,SW,227,0.0,8.3,12,0.00,,,-99.99,VWS V12.07,2014-01-22 00:57:00,
2014-01-21 17:03:00,59.7,6.9,26.25,NW,324,0.0,0.0,12,0.00,,,-99.99,VWS V12.07,2014-01-22 01:03:00,
2014-01-21 17:09:00,59.5,7.0,26.25,NNE,31,0.0,6.3,12,0.00,,,-99.99,VWS V12.07,2014-01-22 01:09:00,
2014-01-21 17:15:00,59.0,6.6,26.25,NE,38,0.0,6.3,12,0.00,,,-99.99,VWS V12.07,2014-01-22 01:15:00,
2014-01-21 17:21:00,58.8,6.3,26.25,NE,53,0.0,4.0,12,0.00,,,-99.99,VWS V12.07,2014-01-22 01:21:00,
2014-01-21 17:27:00,58.5,6.1,26.25,NE,53,0.0,4.0,12,0.00,,,-99.99,VWS V12.07,2014-01-22 01:27:00,
2014-01-21 17:33:00,58.1,5.8,26.25,NE,53,0.0,4.0,12,0.00,,,-99.99,VWS V12.07,2014-01-22 01:33:00,
2014-01-21 17:39:00,57.6,5.6,26.25,NE,53,0.0,0.0,12,0.00,,,-99.99,VWS V12.07,2014-01-22 01:39:00,
2014-01-21 17:45:00,57.7,5.3,26.25,North,9,3.2,3.2,12,0.00,,,-99.99,VWS V12.07,2014-01-22 01:45:00,
2014-01-21 17:51:00,57.6,5.2,26.25,North,10,0.0,2.7,12,0.00,,,-99.99,VWS V12.07,2014-01-22 01:51:00,
2014-01-21 17:57:00,57.4,5.2,26.25,North,10,0.0,2.7,12,0.00,,,-99.99,VWS V12.07,2014-01-22 01:57:00,
2014-01-21 18:03:00,56.8,5.1,26.25,North,10,0.0,0.0,12,0.00,,,-99.99,VWS V12.07,2014-01-22 02:03:00,
2014-01-21 18:09:00,56.3,4.4,26.25,North,10,0.0,0.0,12,0.00,,,-99.99,VWS V12.07,2014-01-22 02:09:00,
2014-01-21 18:15:00,56.3,4.4,26.25,North,10,0.0,0.0,12,0.00,,,-99.99,VWS V12.07,2014-01-22 02:15:00,
2014-01-21 18:21:00,56.1,4.2,26.25,NNE,17,0.0,0.0,12,0.00,,,-99.99,VWS V12.07,2014-01-22 02:21:00,
2014-01-21 18:27:00,56.1,4.1,26.25,NE,40,0.0,0.0,12,0.00,,,-99.99,VWS V12.07,2014-01-22 02:27:00,
2014-01-21 18:33:00,55.8,3.8,26.25,NE,40,0.0,0.0,12,0.00,,,-99.99,VWS V12.07,2014-01-22 02:33:00,
2014-01-21 18:39:00,55.6,3.7,26.25,NE,43,0.0,0.0,12,0.00,,,-99.99,VWS V12.07,2014-01-22 02:39:00,
2014-01-21 18:45:00,55.2,3.7,26.25,NE,43,0.0,0.0,12,0.00,,,-99.99,VWS V12.07,2014-01-22 02:45:00,
2014-01-21 18:51:00,54.7,3.2,26.25,NE,43,0.0,0.0,12,0.00,,,-99.99,VWS V12.07,2014-01-22 02:51:00,
2014-01-21 18:57:00,54.0,2.7,26.25,NE,51,0.0,0.0,12,0.00,,,-99.99,VWS V12.07,2014-01-22 02:57:00,
2014-01-21 19:03:00,53.8,2.4,26.28,NE,51,0.0,0.0,12,0.00,,,-99.99,VWS V12.07,2014-01-22 03:03:00,
2014-01-21 19:09:00,54.1,2.5,26.28,NE,51,0.0,0.0,12,0.00,,,-99.99,VWS V12.07,2014-01-22 03:09:00,
2014-01-21 19:15:00,54.0,2.7,26.28,NE,51,0.0,0.0,12,0.00,,,-99.99,VWS V12.07,2014-01-22 03:15:00,
2014-01-21 19:21:00,53.4,2.0,26.28,NE,51,0.0,0.0,12,0.00,,,-99.99,VWS V12.07,2014-01-22 03:21:00,
2014-01-21 19:27:00,53.1,2.0,26.28,NE,51,0.0,0.0,12,0.00,,,-99.99,VWS V12.07,2014-01-22 03:27:00,
2014-01-21 19:33:00,53.1,1.8,26.28,NE,51,0.0,0.0,12,0.00,,,-99.99,VWS V12.07,2014-01-22 03:33:00,
2014-01-21 19:39:00,53.1,1.8,26.28,NE,51,0.0,0.0,12,0.00,,,-99.99,VWS V12.07,2014-01-22 03:39:00,
2014-01-21 19:45:00,53.2,2.0,26.28,NE,51,0.0,0.0,12,0.00,,,-99.99,VWS V12.07,2014-01-22 03:45:00,
2014-01-21 19:51:00,52.5,1.5,26.28,NE,51,0.0,0.0,12,0.00,,,-99.99,VWS V12.07,2014-01-22 03:51:00,
2014-01-21 19:57:00,52.3,1.4,26.28,NE,51,0.0,0.0,12,0.00,,,-99.99,VWS V12.07,2014-01-22 03:57:00,
2014-01-21 20:03:00,52.9,1.5,26.28,ENE,71,0.0,0.0,12,0.00,,,-99.99,VWS V12.07,2014-01-22 04:03:00,
2014-01-21 20:09:00,52.3,1.4,26.28,ENE,71,0.0,0.0,12,0.00,,,-99.99,VWS V12.07,2014-01-22 04:09:00,
2014-01-21 20:15:00,51.4,0.5,26.28,ENE,71,0.0,0.0,12,0.00,,,-99.99,VWS V12.07,2014-01-22 04:15:00,
2014-01-21 20:21:00,50.9,0.2,26.28,SW,214,0.0,0.0,12,0.00,,,-99.99,VWS V12.07,2014-01-22 04:21:00,
2014-01-21 20:27:00,50.9,0.1,26.28,ENE,72,0.0,0.0,12,0.00,,,-99.99,VWS V12.07,2014-01-22 04:27:00,
2014-01-21 20:33:00,51.3,0.4,26.25,SE,136,0.0,0.0,12,0.00,,,-99.99,VWS V12.07,2014-01-22 04:33:00,
2014-01-21 20:39:00,51.3,0.4,26.25,SE,136,0.0,0.0,12,0.00,,,-99.99,VWS V12.07,2014-01-22 04:39:00,
2014-01-21 20:45:00,50.7,0.0,26.25,SE,136,0.0,0.0,12,0.00,,,-99.99,VWS V12.07,2014-01-22 04:45:00,
2014-01-21 20:51:00,50.5,-0.2,26.25,SE,136,0.0,0.0,12,0.00,,,-99.99,VWS V12.07,2014-01-22 04:51:00,
2014-01-21 20:57:00,50.9,0.2,26.25,SE,136,0.0,0.0,12,0.00,,,-99.99,VWS V12.07,2014-01-22 04:57:00,
2014-01-21 21:01:00,51.3,0.4,26.25,SE,136,0.0,0.0,12,0.00,,,-99.99,VWS V12.07,2014-01-22 05:01:00,
2014-01-21 21:03:00,51.4,0.5,26.25,SE,136,0.0,0.0,12,0.00,,,-99.99,VWS V12.07,2014-01-22 05:03:00,
2014-01-21 21:05:00,51.6,0.5,26.25,SE,136,0.0,0.0,12,0.00,,,-99.99,VWS V12.07,2014-01-22 05:05:00,
2014-01-21 21:07:00,51.6,0.7,26.25,SE,130,0.0,0.0,12,0.00,,,-99.99,VWS V12.07,2014-01-22 05:07:00,
2014-01-21 21:09:00,51.6,0.8,26.25,SE,129,0.0,0.0,12,0.00,,,-99.99,VWS V12.07,2014-01-22 05:09:00,
2014-01-21 21:15:00,51.8,0.5,26.25,East,100,0.0,0.0,12,0.00,,,-99.99,VWS V12.07,2014-01-22 05:15:00,
2014-01-21 21:21:00,51.4,0.7,26.25,East,97,0.0,0.0,12,0.00,,,-99.99,VWS V12.07,2014-01-22 05:21:00,
2014-01-21 21:25:00,51.6,0.5,26.25,East,97,0.0,0.0,12,0.00,,,-99.99,VWS V12.07,2014-01-22 05:25:00,
2014-01-21 21:31:00,50.4,-0.3,26.28,East,97,0.0,0.0,12,0.00,,,-99.99,VWS V12.07,2014-01-22 05:31:00,
2014-01-21 21:37:00,50.2,-0.5,26.28,East,97,0.0,0.0,12,0.00,,,-99.99,VWS V12.07,2014-01-22 05:37:00,
2014-01-21 21:43:00,50.2,-0.5,26.28,East,97,0.0,0.0,12,0.00,,,-99.99,VWS V12.07,2014-01-22 05:43:00,
2014-01-21 21:49:00,50.4,-0.3,26.28,East,97,0.0,0.0,12,0.00,,,-99.99,VWS V12.07,2014-01-22 05:49:00,
2014-01-21 21:55:00,50.2,-0.5,26.28,East,97,0.0,0.0,12,0.00,,,-99.99,VWS V12.07,2014-01-22 05:55:00,
2014-01-21 22:01:00,50.0,-0.6,26.28,East,97,0.0,0.0,12,0.00,,,-99.99,VWS V12.07,2014-01-22 06:01:00,
2014-01-21 22:07:00,50.2,-0.5,26.28,East,97,0.0,0.0,12,0.00,,,-99.99,VWS V12.07,2014-01-22 06:07:00,
2014-01-21 22:13:00,49.8,-0.6,26.28,East,97,0.0,0.0,12,0.00,,,-99.99,VWS V12.07,2014-01-22 06:13:00,
2014-01-21 22:19:00,50.0,-0.6,26.28,East,97,0.0,0.0,12,0.00,,,-99.99,VWS V12.07,2014-01-22 06:19:00,
2014-01-21 22:25:00,50.0,-0.5,26.28,East,97,0.0,0.0,12,0.00,,,-99.99,VWS V12.07,2014-01-22 06:25:00,
2014-01-21 22:31:00,50.2,-0.5,26.28,East,97,0.0,0.0,12,0.00,,,-99.99,VWS V12.07,2014-01-22 06:31:00,
2014-01-21 22:37:00,50.4,-0.3,26.28,East,97,0.0,0.0,12,0.00,,,-99.99,VWS V12.07,2014-01-22 06:37:00,
2014-01-21 22:43:00,50.2,-0.3,26.25,East,97,0.0,0.0,12,0.00,,,-99.99,VWS V12.07,2014-01-22 06:43:00,
2014-01-21 22:49:00,49.5,-1.0,26.25,East,97,0.0,0.0,12,0.00,,,-99.99,VWS V12.07,2014-01-22 06:49:00,
2014-01-21 22:55:00,49.1,-1.3,26.25,East,97,0.0,0.0,12,0.00,,,-99.99,VWS V12.07,2014-01-22 06:55:00,
2014-01-21 23:01:00,49.5,-1.0,26.25,East,97,0.0,0.0,12,0.00,,,-99.99,VWS V12.07,2014-01-22 07:01:00,
2014-01-21 23:07:00,49.6,-0.9,26.25,ESE,107,0.0,0.0,12,0.00,,,-99.99,VWS V12.07,2014-01-22 07:07:00,
2014-01-21 23:13:00,49.1,-1.0,26.25,ESE,107,0.0,0.0,12,0.00,,,-99.99,VWS V12.07,2014-01-22 07:13:00,
2014-01-21 23:19:00,48.7,-1.5,26.25,ESE,107,0.0,0.0,12,0.00,,,-99.99,VWS V12.07,2014-01-22 07:19:00,
2014-01-21 23:25:00,49.1,-1.6,26.25,East,83,0.0,0.0,12,0.00,,,-99.99,VWS V12.07,2014-01-22 07:25:00,
2014-01-21 23:31:00,49.1,-1.5,26.25,East,83,0.0,0.0,12,0.00,,,-99.99,VWS V12.07,2014-01-22 07:31:00,
2014-01-21 23:37:00,48.7,-1.6,26.25,East,83,0.0,0.0,12,0.00,,,-99.99,VWS V12.07,2014-01-22 07:37:00,
2014-01-21 23:43:00,48.6,-1.7,26.25,East,83,0.0,0.0,12,0.00,,,-99.99,VWS V12.07,2014-01-22 07:43:00,
2014-01-21 23:49:00,48.6,-1.7,26.25,East,83,0.0,0.0,12,0.00,,,-99.99,VWS V12.07,2014-01-22 07:49:00,
2014-01-21 23:55:00,49.1,-1.3,26.25,ESE,119,0.0,0.0,12,0.00,,,-99.99,VWS V12.07,2014-01-22 07:55:00,